This demonstration page uses our WeatherBlox Daily Observations layout. Learn more.

Hourly Observations for January 28, 2019

Temp ( °F °C ) Dew Point ( °F °C ) Humidity (%) Winds ( mph kmh ) Pressure ( in mb ) Visibility ( mi km ) Precip ( " mm )
12:15 am 00:15 Cloudy 40 4.6 32 0.1 73 73 NW 13 20 29.79 1009 10 16.0934 0 0
12:35 am 00:35 Partly Cloudy 39 4.1 32 0.2 76 76 NW 13 20 29.79 1009 10 16.0934 0 0
12:55 am 00:55 Partly Cloudy 38 3.5 32 0 78 78 WNW 9 15 29.81 1010 10 16.0934 0 0
1:15 am 01:15 Cloudy 39 3.7 32 -0.1 76 76 WNW 10 17 29.81 1009 10 16.0934 0 0
1:35 am 01:35 Cloudy 38 3.5 32 -0.2 77 77 NW 12 19 29.82 1010 10 16.0934 0 0
1:55 am 01:55 Cloudy 39 4.1 31 -0.7 71 71 NNW 18 30 29.83 1010 10 16.0934 0 0
2:15 am 02:15 Mostly Cloudy 39 3.7 30 -1.1 71 71 NNW 28 44 29.86 1011 10 16.0934 0 0
2:35 am 02:35 Partly Cloudy 36 2.4 28 -2.2 72 72 NNW 25 41 29.88 1012 10 16.0934 0 0
2:55 am 02:55 Clear 35 1.9 28 -2.1 75 75 NNW 23 37 29.9 1012 10 16.0934 0 0
3:15 am 03:15 Clear 35 1.7 28 -2 77 77 NNW 14 22 29.91 1013 10 16.0934 0 0
3:35 am 03:35 Partly Cloudy 35 1.6 28 -2.1 77 77 N 16 26 29.92 1013 10 16.0934 0 0
3:55 am 03:55 Mostly Cloudy 34 1.1 28 -2.5 77 77 N 14 22 29.93 1014 10 16.0934 0 0
4:15 am 04:15 Cloudy 35 1.4 26 -3.4 71 71 NNW 23 37 29.94 1014 10 16.0934 0 0
4:35 am 04:35 Cloudy 33 0.8 25 -3.9 71 71 NNW 28 44 29.95 1014 10 16.0934 0 0
4:55 am 04:55 Cloudy 33 0.5 25 -4.1 72 72 NNW 28 44 29.97 1015 10 16.0934 0 0
5:15 am 05:15 Cloudy 33 0.5 23 -4.9 67 67 NNW 26 43 29.99 1016 10 16.0934 0 0
5:35 am 05:35 Cloudy 33 0.3 22 -5.6 65 65 NNW 25 41 29.99 1016 10 16.0934 0 0
5:55 am 05:55 Cloudy 32 0 23 -4.8 70 70 N 26 43 30.01 1016 10 16.0934 0 0
6:15 am 06:15 Cloudy 31 -0.5 21 -6.2 66 66 NNW 29 46 30.04 1017 10 16.0934 0 0
6:35 am 06:35 Cloudy 30 -1.2 20 -6.6 67 67 N 21 33 30.06 1018 10 16.0934 0 0
6:55 am 06:55 Partly Cloudy 29 -1.8 20 -6.5 71 71 N 22 35 30.08 1019 10 16.0934 0 0
7:15 am 07:15 Partly Cloudy 28 -2 20 -6.6 71 71 N 28 44 30.09 1019 10 16.0934 0 0
7:35 am 07:35 Partly Cloudy 28 -2.5 18 -7.8 67 67 N 32 52 30.12 1020 10 16.0934 0 0
7:55 am 07:55 Mostly Cloudy 27 -2.7 18 -7.6 69 69 N 23 37 30.13 1020 10 16.0934 0 0
8:15 am 08:15 Cloudy 27 -2.6 18 -7.9 67 67 N 24 39 30.16 1021 10 16.0934 0 0
8:35 am 08:35 Cloudy 27 -2.6 18 -7.8 68 68 NNW 20 31 30.18 1022 10 16.0934 0 0
8:55 am 08:55 Cloudy 27 -2.6 17 -8.4 65 65 N 26 43 30.2 1023 10 16.0934 0 0
9:15 am 09:15 Cloudy 27 -2.6 17 -8.1 66 66 NNW 22 35 30.21 1023 10 16.0934 0 0
9:35 am 09:35 Cloudy 28 -2.3 18 -8 65 65 N 24 39 30.22 1023 10 16.0934 0 0
9:55 am 09:55 Cloudy 28 -2.2 17 -8.1 64 64 NNW 22 35 30.22 1023 10 16.0934 0 0
10:15 am 10:15 Cloudy 29 -1.9 16 -8.7 60 60 NNW 32 52 30.22 1023 10 16.0934 0 0
10:35 am 10:35 Cloudy 28 -2 15 -9.2 58 58 NNW 28 44 30.24 1024 10 16.0934 0 0
10:55 am 10:55 Cloudy 28 -2.2 15 -9.4 58 58 N 26 43 30.26 1025 10 16.0934 0 0
11:15 am 11:15 Mostly Cloudy 29 -1.7 15 -9.5 56 56 N 26 43 30.25 1024 10 16.0934 0 0
11:35 am 11:35 Mostly Cloudy 29 -1.6 15 -9.3 56 56 N 24 39 30.25 1024 10 16.0934 0 0
11:55 am 11:55 Cloudy 29 -1.5 15 -9.2 56 56 N 26 43 30.25 1024 10 16.0934 0 0
12:15 pm 12:15 Cloudy 30 -1 16 -8.7 56 56 N 25 41 30.24 1024 10 16.0934 0 0
12:35 pm 12:35 Mostly Cloudy 30 -0.9 16 -8.8 55 55 N 23 37 30.23 1024 10 16.0934 0 0
12:55 pm 12:55 Mostly Cloudy 30 -1.2 16 -9.1 55 55 N 21 33 30.24 1024 10 16.0934 0 0
1:15 pm 13:15 Cloudy 31 -0.7 15 -9.4 52 52 NNW 20 31 30.23 1024 10 16.0934 0 0
1:35 pm 13:35 Cloudy 30 -1 15 -9.7 52 52 NNW 20 31 30.23 1024 10 16.0934 0 0
1:55 pm 13:55 Cloudy 30 -1 15 -9.2 54 54 NNW 17 28 30.22 1024 10 16.0934 0 0
2:15 pm 14:15 Cloudy 31 -0.7 15 -9.4 52 52 NNW 18 30 30.22 1023 10 16.0934 0 0
2:35 pm 14:35 Cloudy 31 -0.5 15 -9.2 52 52 NNW 17 28 30.22 1023 10 16.0934 0 0
2:55 pm 14:55 Cloudy 32 -0.2 16 -9 52 52 NW 22 35 30.22 1023 10 16.0934 0 0
3:15 pm 15:15 Cloudy 31 -0.4 15 -9.6 50 50 NW 22 35 30.23 1024 10 16.0934 0 0
3:35 pm 15:35 Cloudy 31 -0.5 16 -9 53 53 NNW 25 41 30.24 1024 10 16.0934 0 0
3:55 pm 15:55 Mostly Cloudy 31 -0.7 16 -9 54 54 NNW 22 35 30.24 1024 10 16.0934 0 0
4:15 pm 16:15 Partly Cloudy 31 -0.5 12 -11.2 45 45 NNW 22 35 30.25 1024 10 16.0934 0 0
4:35 pm 16:35 Sunny 31 -0.5 10 -12 42 42 NNW 18 30 30.25 1024 10 16.0934 0 0
4:55 pm 16:55 Sunny 29 -1.5 18 -8 62 62 N 16 26 30.27 1025 10 16.0934 0 0
5:15 pm 17:15 Sunny 29 -1.7 15 -9.3 57 57 N 16 26 30.27 1025 10 16.0934 0 0
5:35 pm 17:35 Sunny 29 -1.8 14 -10.2 53 53 N 14 22 30.28 1025 10 16.0934 0 0
6:15 pm 18:15 Clear 27 -2.6 5 -14.8 39 39 NNW 24 39 30.32 1027 10 16.0934 0 0
6:35 pm 18:35 Clear 26 -3.3 5 -15.1 40 40 N 21 33 30.33 1027 10 16.0934 0 0
6:55 pm 18:55 Clear 25 -4 7 -13.7 47 47 N 14 22 30.32 1027 10 16.0934 0 0
7:15 pm 19:15 Clear 24 -4.3 8 -13.2 50 50 N 16 26 30.34 1027 10 16.0934 0 0
7:35 pm 19:35 Clear 22 -5.3 9 -12.6 57 57 N 9 15 30.35 1028 10 16.0934 0 0
7:55 pm 19:55 Clear 22 -5.5 10 -12.5 58 58 N 7 11 30.36 1028 10 16.0934 0 0
8:15 pm 20:15 Clear 22 -5.4 10 -12.5 58 58 NW 6 9 30.36 1028 10 16.0934 0 0
8:35 pm 20:35 Clear 21 -6.3 10 -12 64 64 NW 6 9 30.38 1029 10 16.0934 0 0
8:55 pm 20:55 Clear 19 -7.2 11 -11.8 70 70 NW 7 11 30.38 1029 10 16.0934 0 0
9:15 pm 21:15 Clear 21 -6.3 9 -12.6 61 61 WNW 6 9 30.36 1028 10 16.0934 0 0
9:35 pm 21:35 Clear 19 -7.1 10 -12.2 67 67 W 5 7 30.37 1028 10 16.0934 0 0
9:55 pm 21:55 Clear 19 -7.5 10 -12.1 70 70 WNW 6 9 30.37 1028 10 16.0934 0 0
10:15 pm 22:15 Clear 21 -6.1 11 -11.8 64 64 WNW 7 11 30.36 1028 10 16.0934 0 0
10:35 pm 22:35 Clear 19 -7 11 -11.5 71 71 WNW 5 7 30.35 1028 10 16.0934 0 0
10:55 pm 22:55 Clear 19 -7 11 -11.4 71 71 W 6 9 30.34 1028 10 16.0934 0 0
11:15 pm 23:15 Clear 19 -7.5 12 -11.3 75 75 W 8 13 30.34 1027 10 16.0934 0 0
11:35 pm 23:35 Clear 20 -6.9 11 -11.5 70 70 W 7 11 30.32 1027 10 16.0934 0 0
11:55 pm 23:55 Partly Cloudy 20 -6.8 11 -11.7 68 68 W 8 13 30.32 1027 10 16.0934 0 0

Powered by AerisWeather